Weather History for Abilene, TX

Change the Weather History Date:

Thursday, February 7, 2013

  Actual Average Record
Temperature  
Mean Temperature 58 °F 47 °F  
Max Temperature 69 °F 59 °F 86 °F (1932)
Min Temperature 46 °F 35 °F -2 °F (1895)
Degree Days  
Heating Degree Days 7 18  
Month to date heating degree days 62 130  
Since 1 July heating degree days 1481 1799  
Cooling Degree Days 0 0  
Month to date cooling degree days 0 0  
Year to date cooling degree days 6 1  
Growing Degree Days 8 (Base 50)    
Moisture  
Dew Point 45 °F    
Average Humidity 65    
Maximum Humidity 93    
Minimum Humidity 36    
Precipitation  
Precipitation 0.00 in 0.05 in 1.53 in (1931)
Month to date precipitation 0.00 0.30  
Year to date precipitation 1.31 1.32  
Sea Level Pressure  
Sea Level Pressure 29.94 in    
Wind  
Wind Speed 14 mph (NW)    
Max Wind Speed 25 mph    
Max Gust Speed 31 mph    
Visibility 10 miles    
Events      
T = Trace of Precipitation, MM = Missing Value Source: NWS Daily Summary

Daily Weather History Graph

Daily Weather History Graph

Search for Another Location

Airport:

Trip Planner

Search our weather history database for the weather conditions in past years. The results will help you decide how hot, cold, wet, or windy it might be!

Date:

Astronomy

Feb. 07, 2013 Rise Set
Actual Time 7:28 AM CST 6:17 PM CST
Civil Twilight 7:02 AM CST 6:43 PM CST
Nautical Twilight 6:33 AM CST 7:12 PM CST
Astronomical Twilight 6:05 AM CST 7:41 PM CST
Moon 5:04 AM CST (2/7) 3:48 PM CST (2/7)
Length of Visible Light 11h 40m
Length of Day
10h 49m
Waning Crescent, 9% of the Moon is Illuminated
Feb 7
Waning Crescent
Feb 10
New
Feb 17
First Quarter
Feb 25
Full
Mar 4
Last Quarter

Hourly Weather History & Observations

Time (CST) Temp. Dew Point Humidity Pressure Visibility Wind Dir Wind Speed Gust Speed Precip Events Conditions
12:52 AM 57.9 °F 53.1 °F 84% 29.79 in 10.0 mi SSE 11.5 mph - N/A   Clear
1:52 AM 55.9 °F 53.1 °F 90% 29.80 in 10.0 mi SSE 6.9 mph - N/A   Clear
2:52 AM 57.9 °F 53.1 °F 84% 29.80 in 10.0 mi South 9.2 mph - N/A   Clear
3:52 AM 59.0 °F 55.0 °F 87% 29.78 in 10.0 mi South 13.8 mph 19.6 mph N/A   Clear
4:52 AM 57.9 °F 55.0 °F 90% 29.77 in 10.0 mi SSW 16.1 mph 24.2 mph N/A   Clear
5:52 AM 57.9 °F 55.0 °F 90% 29.79 in 10.0 mi SW 18.4 mph 24.2 mph N/A   Clear
6:52 AM 57.9 °F 55.0 °F 90% 29.80 in 10.0 mi SW 12.7 mph 25.3 mph N/A   Clear
7:52 AM 57.0 °F 54.0 °F 89% 29.83 in 8.0 mi SW 10.4 mph - N/A   Clear
9:52 AM 61.0 °F 37.0 °F 41% 29.90 in 10.0 mi NW 12.7 mph - N/A   Clear
10:52 AM 62.1 °F 36.0 °F 38% 29.93 in 10.0 mi WNW 19.6 mph 25.3 mph N/A   Clear
11:52 AM 63.0 °F 37.0 °F 38% 29.94 in 10.0 mi WNW 15.0 mph - N/A   Clear
12:52 PM 66.0 °F 39.0 °F 37% 29.93 in 10.0 mi NW 20.7 mph 27.6 mph N/A   Clear
1:52 PM 66.9 °F 39.0 °F 36% 29.91 in 10.0 mi NNW 20.7 mph 28.8 mph N/A   Clear
2:52 PM 68.0 °F 41.0 °F 37% 29.91 in 10.0 mi NNW 20.7 mph 27.6 mph N/A   Clear
3:52 PM 66.9 °F 44.1 °F 44% 29.94 in 10.0 mi NNW 23.0 mph 28.8 mph N/A   Clear
4:52 PM 63.0 °F 45.0 °F 52% 29.98 in 10.0 mi North 19.6 mph 25.3 mph N/A   Clear
5:52 PM 61.0 °F 43.0 °F 52% 30.00 in 10.0 mi North 13.8 mph - N/A   Clear
6:52 PM 59.0 °F 39.9 °F 49% 30.04 in 10.0 mi North 16.1 mph 25.3 mph N/A   Clear
7:52 PM 55.9 °F 39.9 °F 55% 30.08 in 10.0 mi North 11.5 mph - N/A   Clear
8:52 PM 54.0 °F 39.9 °F 59% 30.12 in 10.0 mi North 11.5 mph - N/A   Clear
9:52 PM 50.0 °F 39.0 °F 66% 30.14 in 10.0 mi North 8.1 mph - N/A   Clear
10:52 PM 48.0 °F 39.0 °F 71% 30.17 in 10.0 mi North 6.9 mph - N/A   Clear
11:52 PM 48.0 °F 37.9 °F 68% 30.17 in 10.0 mi North 9.2 mph - N/A   Clear